Tracking 28790 objects as of 18-Apr-2024
HD Live streaming from Space Station
objects crossing your sky now

STARLINK-2627

Track STARLINK-2627 now!
10-day predictions
STARLINK-2627 is classified as:


NORAD ID: 48687
Int'l Code: 2021-044BB
Perigee: 553.5 km
Apogee: 555.2 km
Inclination: 53.1 °
Period: 95.6 minutes
Semi major axis: 6925 km
RCS: Unknown
Launch date: May 26, 2021
Source: United States (US)
Launch site: AIR FORCE EASTERN TEST RANGE (AFETR)
Your satellite tracking list
Your tracking list is empty




NASA's NSSDC Master Catalog

Two Line Element Set (TLE):
1 48687U 21044BB  24109.47595767  .00001722  00000-0  13447-3 0  9994
2 48687  53.0550 285.1054 0001233  89.9051 270.2079 15.06393497161281
Source of the keplerian elements: AFSPC